Location: Little Italy
(37.8008°N, 122.4108°W)
Time: 20:13:10
(UTC+00:00)

Cosmos 2278 - Pass Details

Date: 29 October 2020
Orbit: 842 x 851 km, 71.1° (Epoch: 24 November)

Event Time Altitude Azimuth Distance (km) Brightness Sun altitude
Exits shadow 13:23:56 - 332° (NNW) 3,231 6.4 -14.1°
Reaches altitude 10° 13:25:58 10° 328° (NNW) 2,465 5.8 -13.7°
Maximum altitude 13:31:26 52° 253° (WSW) 1,034 3.8 -12.6°
Drops below altitude 10° 13:36:53 10° 178° (S) 2,450 6.2 -11.6°
Sets 13:39:21 0° 173° (S) 3,381 7.0 -11.1°
